Weather History for Pagosa Springs, CO

Change the Weather History Date:

Friday, October 18, 2013

  Actual Average (KDRO) Record (KDRO)
Temperature  
Mean Temperature 38 °F 46 °F  
Max Temperature 52 °F 62 °F 80 °F (1988)
Min Temperature 23 °F 30 °F 18 °F (1999)
Degree Days  
Heating Degree Days 28 19  
Month to date heating degree days 281  
Since 1 July heating degree days 505  
Cooling Degree Days 0 0  
Month to date cooling degree days 0  
Year to date cooling degree days 243  
Moisture  
Dew Point 15 °F    
Average Humidity 47    
Maximum Humidity 79    
Minimum Humidity 11    
Precipitation  
Precipitation 0.00 in 0.04 in 0.45 in (2005)
Month to date precipitation 0.87  
Year to date precipitation 12.75  
Sea Level Pressure  
Sea Level Pressure 30.13 in    
Wind  
Wind Speed 2 mph (West)    
Max Wind Speed 13 mph    
Max Gust Speed 20 mph    
Visibility 10 miles    
Events Thunderstorm    
T = Trace of Precipitation, MM = Missing Value Source: NWS Daily Summary

Daily Weather History Graph

Daily Weather History Graph

Search for Another Location

Airport:

Trip Planner

Search our weather history database for the weather conditions in past years. The results will help you decide how hot, cold, wet, or windy it might be!

Date:

Astronomy

Oct. 18, 2013 Rise Set
Actual Time 7:19 AM MDT 6:26 PM MDT
Civil Twilight 6:52 AM MDT 6:53 PM MDT
Nautical Twilight 6:22 AM MDT 7:23 PM MDT
Astronomical Twilight 5:52 AM MDT 7:53 PM MDT
Moon 6:19 PM MDT (10/18) 6:57 AM MDT (10/18)
Length of Visible Light 12h 00m
Length of Day
11h 07m
Full, 100% of the Moon is Illuminated
Oct 18
Full
Oct 18
Full
Oct 26
Last Quarter
Nov 3
New
Nov 9
First Quarter

Hourly Weather History & Observations

Time (MDT) Temp. Windchill Dew Point Humidity Pressure Visibility Wind Dir Wind Speed Gust Speed Precip Events Conditions
12:15 AM 29.5 °F - 19.9 °F 68% 30.08 in 10.0 mi Calm Calm - N/A   Clear
12:35 AM 30.2 °F - 19.8 °F 65% 30.07 in 10.0 mi Calm Calm - N/A   Clear
12:55 AM 28.8 °F - 20.5 °F 71% 30.07 in 10.0 mi Calm Calm - N/A   Clear
1:15 AM 27.5 °F - 19.4 °F 72% 30.07 in 10.0 mi Calm Calm - N/A   Clear
1:35 AM 28.6 °F - 19.6 °F 69% 30.07 in 10.0 mi Calm Calm - N/A   Clear
1:55 AM 27.5 °F - 19.6 °F 72% 30.07 in 10.0 mi Calm Calm - N/A   Clear
2:15 AM 27.9 °F - 20.3 °F 73% 30.07 in 10.0 mi Calm Calm - N/A   Clear
2:35 AM 28.0 °F - 19.9 °F 72% 30.07 in 10.0 mi Calm Calm - N/A   Clear
2:55 AM 28.4 °F - 19.8 °F 70% 30.07 in 10.0 mi Calm Calm - N/A   Clear
3:15 AM 27.3 °F - 19.2 °F 72% 30.07 in 10.0 mi Calm Calm - N/A   Clear
3:35 AM 27.5 °F - 20.1 °F 74% 30.06 in 10.0 mi Calm Calm - N/A   Clear
3:55 AM 28.0 °F - 19.0 °F 69% 30.06 in 10.0 mi Calm Calm - N/A   Clear
4:15 AM 25.0 °F - 18.3 °F 76% 30.06 in 10.0 mi Calm Calm - N/A   Clear
4:35 AM 26.2 °F - 18.0 °F 71% 30.07 in 10.0 mi Calm Calm - N/A   Clear
4:55 AM 25.5 °F - 18.5 °F 75% 30.07 in 10.0 mi Calm Calm - N/A   Clear
5:15 AM 25.9 °F - 18.3 °F 73% 30.07 in 10.0 mi Calm Calm - N/A   Clear
5:35 AM 26.8 °F - 18.9 °F 72% 30.07 in 10.0 mi Calm Calm - N/A   Clear
5:55 AM 24.8 °F - 18.1 °F 76% 30.07 in 10.0 mi Calm Calm - N/A Thunderstorm Thunderstorm
6:15 AM 24.8 °F - 18.5 °F 77% 30.07 in 10.0 mi Calm Calm - N/A   Clear
6:35 AM 24.8 °F - 18.7 °F 78% 30.07 in 10.0 mi Calm Calm - N/A   Clear
6:55 AM 23.9 °F - 18.0 °F 78% 30.08 in 10.0 mi Calm Calm - N/A   Clear
7:15 AM 24.4 °F - 18.1 °F 77% 30.08 in 10.0 mi Calm Calm - N/A   Clear
7:35 AM 24.4 °F - 18.1 °F 77% 30.09 in 10.0 mi Calm Calm - N/A   Clear
7:55 AM 23.9 °F - 18.3 °F 79% 30.09 in 10.0 mi Calm Calm - N/A   Clear
8:15 AM 26.8 °F - 19.8 °F 75% 30.10 in 10.0 mi Calm Calm - N/A   Clear
8:35 AM 30.6 °F - 20.5 °F 66% 30.11 in 10.0 mi Calm Calm - N/A   Clear
8:55 AM 32.9 °F - 17.8 °F 54% 30.11 in 10.0 mi Calm Calm - N/A   Clear
9:15 AM 33.8 °F - 20.1 °F 57% 30.12 in 10.0 mi Calm Calm - N/A   Clear
9:35 AM 36.3 °F - 18.7 °F 49% 30.12 in 10.0 mi Calm Calm - N/A   Clear
9:55 AM 38.1 °F - 21.2 °F 51% 30.12 in 10.0 mi Calm Calm - N/A   Clear
10:15 AM 40.1 °F - 20.5 °F 45% 30.12 in 10.0 mi Calm Calm - N/A   Clear
10:35 AM 42.3 °F 40.5 °F 20.7 °F 42% 30.12 in 10.0 mi ESE 3.5 mph - N/A   Clear
10:55 AM 43.9 °F - 16.2 °F 33% 30.12 in 10.0 mi Calm Calm - N/A Thunderstorm Clear
11:15 AM 45.7 °F 44.4 °F 18.0 °F 33% 30.13 in 10.0 mi ESE 3.5 mph - N/A   Clear
11:35 AM 46.4 °F 42.9 °F 14.9 °F 28% 30.13 in 10.0 mi South 6.9 mph - N/A   Clear
11:55 AM 46.6 °F - 10.8 °F 23% 30.13 in 10.0 mi Calm Calm - N/A   Clear
12:15 PM 48.6 °F - 8.8 °F 20% 30.13 in 10.0 mi ESE 4.6 mph 17.3 mph N/A   Clear
12:35 PM 48.7 °F - 2.5 °F 15% 30.13 in 10.0 mi NW 11.5 mph 19.6 mph N/A   Clear
12:55 PM 50.0 °F - 5.9 °F 17% 30.13 in 10.0 mi WNW 9.2 mph 19.6 mph N/A   Clear
1:15 PM 50.0 °F - 1.9 °F 14% 30.12 in 10.0 mi WNW 6.9 mph - N/A   Clear
1:35 PM 51.1 °F - 2.1 °F 14% 30.12 in 10.0 mi NW 5.8 mph - N/A   Clear
1:55 PM 51.1 °F - 2.8 °F 14% 30.12 in 10.0 mi NW 8.1 mph - N/A   Clear
2:15 PM 52.0 °F - -0.2 °F 12% 30.11 in 10.0 mi NNW 5.8 mph - N/A   Clear
2:35 PM 52.0 °F - -2.6 °F 11% 30.11 in 10.0 mi West 6.9 mph - N/A   Clear
2:55 PM 52.7 °F - -0.8 °F 11% 30.11 in 10.0 mi West 6.9 mph - N/A   Clear
3:15 PM 51.8 °F - 4.5 °F 15% 30.11 in 10.0 mi SW 8.1 mph - N/A   Clear
3:35 PM 52.3 °F - 7.9 °F 17% 30.11 in 10.0 mi SW 10.4 mph - N/A   Clear
3:55 PM 52.5 °F - 10.2 °F 18% 30.12 in 10.0 mi WSW 12.7 mph 18.4 mph N/A   Clear
4:15 PM 52.0 °F - 11.8 °F 20% 30.12 in 10.0 mi WSW 11.5 mph 16.1 mph N/A   Clear
4:35 PM 51.8 °F - 11.1 °F 20% 30.12 in 10.0 mi SW 11.5 mph - N/A   Clear
4:55 PM 51.8 °F - 10.8 °F 19% 30.12 in 10.0 mi SW 9.2 mph - N/A   Clear
5:15 PM 51.8 °F - 10.4 °F 19% 30.13 in 10.0 mi SW 11.5 mph - N/A   Clear
5:35 PM 51.1 °F - 9.3 °F 19% 30.13 in 10.0 mi SW 11.5 mph - N/A   Clear
5:55 PM 50.9 °F - 9.3 °F 19% 30.14 in 10.0 mi SW 6.9 mph - N/A   Clear
6:15 PM 49.6 °F - 8.6 °F 19% 30.14 in 10.0 mi SW 8.1 mph - N/A   Clear
6:35 PM 48.4 °F - 9.3 °F 21% 30.16 in 10.0 mi SW 3.5 mph - N/A   Clear
6:55 PM 43.5 °F - 15.4 °F 32% 30.17 in 10.0 mi Calm Calm - N/A   Clear
7:15 PM 37.2 °F - 20.3 °F 50% 30.17 in 10.0 mi Calm Calm - N/A   Clear
7:35 PM 35.2 °F - 19.6 °F 53% 30.19 in 10.0 mi Calm Calm - N/A   Clear
7:55 PM 37.6 °F - 16.3 °F 42% 30.19 in 10.0 mi Calm Calm - N/A   Clear
8:15 PM 33.6 °F - 19.2 °F 56% 30.20 in 10.0 mi Calm Calm - N/A   Clear
8:35 PM 36.1 °F 32.3 °F 15.8 °F 44% 30.21 in 10.0 mi NE 4.6 mph - N/A   Clear
8:55 PM 34.9 °F 30.8 °F 17.1 °F 48% 30.21 in 10.0 mi NNE 4.6 mph - N/A   Clear
9:15 PM 34.7 °F 31.8 °F 16.5 °F 48% 30.22 in 10.0 mi North 3.5 mph - N/A   Clear
9:35 PM 35.4 °F 30.5 °F 14.5 °F 42% 30.23 in 10.0 mi NNE 5.8 mph - N/A   Clear
9:55 PM 35.1 °F 30.1 °F 13.6 °F 41% 30.24 in 10.0 mi NNE 5.8 mph - N/A   Clear
10:15 PM 34.2 °F 29.0 °F 14.0 °F 44% 30.24 in 10.0 mi NNE 5.8 mph - N/A   Clear
10:35 PM 33.1 °F 27.7 °F 15.3 °F 48% 30.25 in 10.0 mi NNE 5.8 mph - N/A   Clear
10:55 PM 32.5 °F - 16.0 °F 51% 30.25 in 10.0 mi Calm Calm - N/A   Clear
11:15 PM 32.7 °F - 14.4 °F 47% 30.26 in 10.0 mi Calm Calm - N/A   Clear
11:35 PM 30.7 °F - 15.6 °F 54% 30.26 in 10.0 mi Calm Calm - N/A   Clear
11:55 PM 29.7 °F - 14.7 °F 54% 30.26 in 10.0 mi Calm Calm - N/A   Clear